Regional Weather Roundup
Issued by NWS Wakefield, VA

Home | Current Version | Previous Version | Text Only | Print | Product List | Glossary On
Versions: 1 2 3 4 5 6 7 8 9 10 11 12 13 14 15 16 17 18 19 20 21 22 23 24 25 26 27
000
ASUS41 KAKQ 280114
RWRAKQ

REGIONAL WEATHER ROUNDUP
NATIONAL WEATHER SERVICE WAKEFIELD VA
900 PM EDT MON JUN 27 2016

Note: "fair" indicates few or no clouds below 12,000 feet with no
significant weather and/or obstructions to visibility. * = Denotes
station may not report precipitation (e.g., rain,snow,etc.),
thunder or fog.

VAZ042-051-052>054-056-280200-
NORTHERN VIRGINIA

CITY           SKY/WX    TMP DP  RH WIND       PRES   REMARKS
WASH NATIONAL  MOCLDY    80  71  74 SE9       29.97S
DULLES         MOCLDY    78  70  76 SE5       29.96S
FORT BELVOIR   FAIR      76  73  89 SE3       29.96S
QUANTICO       MOCLDY    79  73  82 S7        29.97S
FREDERICKSBRG* CLOUDY    81  73  77 SE5       29.95F
STAFFORD*      FAIR      77  73  85 CALM      30.00S
WARRENTON      FAIR      77  70  78 S3        29.97R
CULPEPER*      FAIR      76  75  96 CALM      29.97S
MANASSAS*      CLEAR     77  75  94 CALM      29.96S
LEESBURG*      FAIR      79  73  83 CALM      29.98R
WINCHESTER     FAIR      73  72  94 SW3       29.98S
FRONT ROYAL*   FAIR      73  73 100 CALM      29.98R
LURAY*         FAIR      73  73 100 SW5       29.99S
$$

VAZ048-049-060>072-079>083-280200-
CENTRAL AND SOUTH CENTRAL VIRGINIA

CITY           SKY/WX    TMP DP  RH WIND       PRES   REMARKS
RICHMOND       CLOUDY    79  71  76 S6        29.98S
CHESTERFIELD*  MOCLDY    81  63  54 S5        30.00R
PETERSBURG*    MOCLDY    77  77  98 CALM      30.00S
HANOVER        MOCLDY    81  68  64 VRB5      29.99S
TAPPAHANNOCK*  FAIR      79  69  70 SE5       30.00R
QUINTON*       CLOUDY    80  71  75 E6        29.98S
CHARLOTTSVILLE MOCLDY    76  70  82 SW5       29.99S
GORDONSVILLE*  MOCLDY    78  74  85 CALM      29.97F
ORANGE*        FAIR      79  77  94 S3        29.99F
LOUISA*        CLOUDY    81  77  89 CALM      29.97F
BUMPASS*       CLOUDY    79  74  85 CALM      29.97F
FARMVILLE*     CLOUDY    77  77 100 CALM      29.98F
CREWE*         FAIR      77  77 100 CALM      29.99F
FORT PICKETT*  MOCLDY    79  74  85 CALM      30.00S
CHASE CITY*    FAIR      77  76  95 CALM      30.01S
CLARKSVILLE*   FAIR      75  75 100 CALM      30.00S
SOUTH HILL*    FAIR      76  71  83 CALM      30.06S
LAWRENCEVILLE* FAIR      77  71  81 CALM      30.00S
EMPORIA*         N/A     73  70  88 CALM      30.01S
$$

VAZ088>098-280200-
SOUTHEAST VIRGINIA

CITY           SKY/WX    TMP DP  RH WIND       PRES   REMARKS
NORFOLK        FAIR      77  69  76 S12G17    30.01R
VIRGINIA BEACH FAIR      80  68  66 S9        30.00S
NORFOLK NAVAL  FAIR      78  69  73 SE8       30.02R
WEST POINT*    FAIR      76  68  75 SE5       30.00F
SALUDA*        FAIR      75  70  83 SE8       30.00S
NEWPORT NEWS   FAIR      77  70  79 SE6       30.00R
LANGLEY AFB    FAIR      79  69  69 SE7       30.00R
FORT EUSTIS    MOCLDY    78  69  73 SE5       29.98S
WILLIAMSBURG*  FAIR      79  72  78 CALM      30.00S
HR EXEC AP*    FAIR      77  63  61 S7        30.03R
FRANKLIN*      FAIR      77  68  73 SE3       30.00S
US460-WAKEFLD  FAIR      75  69  81 CALM      30.00R
$$

VAZ020-022-025-037-045-280200-
WEST CENTRAL AND SOUTHWEST VIRGINIA

CITY           SKY/WX    TMP DP  RH WIND       PRES   REMARKS
STAUNTON*      FAIR      72  70  95 CALM      30.05R
WAYNESBORO*    MOCLDY    72  67  85 CALM      30.04S
HOT SPRINGS VA FAIR      65  65 100 W6        30.15S
LYNCHBURG      TSTM      70  69  97 N3        30.06R
DANVILLE       CLOUDY    79  73  82 W3        30.01S
SOUTH BOSTON*  FAIR      78  77  94 CALM      30.00S
MARTINSVILLE   MOCLDY    72  70  93 CALM      30.08R
ROANOKE        LGT RAIN  74  71  91 CALM      30.06S
BLACKSBURG     RAIN      69  68  98 CALM      30.13S
DUBLIN*        LGT RAIN  70  70 100 CALM      30.11F
MARION*        DRIZZLE   70  66  86 NE5       30.15S
HILLSVILLE*    LGT RAIN  68  68  99 CALM      30.12F
RICHLANDS*     MOCLDY    68  64  84 CALM      30.12S
WISE*          FAIR      68  68 100 CALM      30.14R
ABINGDON*      CLOUDY    73  71  93 CALM      30.10R
$$

MDZ021>025-VAZ099-100-280200-
SOUTHERN MARYLAND AND THE DELMARVA PENINSULA

CITY           SKY/WX    TMP DP  RH WIND       PRES   REMARKS
PATUXENT RIVER CLOUDY    77  67  71 S10       29.98S
BAY BRIDGE APT CLOUDY    79  66  65 S7        29.97S
LEONARDTOWN    CLOUDY    75  66  73 SE7       30.00S
DOVER          CLOUDY    77  68  73 S10       29.98R
GEORGETOWN     CLOUDY    75  68  78 S9        30.01S
EASTON         CLOUDY    81  72  74 S6        30.02S
CAMBRIDGE      CLOUDY    77  66  69 S7        29.99S
SALISBURY      CLOUDY    74  68  81 S7        30.01S
OCEAN CITY     CLOUDY    73  70  90 VRB6      30.02S
WALLOPS ISLAND FAIR      74  71  91 S10       30.02F
ACCOMACK*      FAIR      73  68  83 S3        30.01F
$$

NCZ012>017-030>032-280200-
NORTH CENTRAL AND EASTERN NORTH CAROLINA

CITY           SKY/WX    TMP DP  RH WIND       PRES   REMARKS
ROANOKE RAPIDS FAIR      73  70  88 CALM      30.00S
RALEIGH        CLOUDY    80  67  64 CALM      30.01R
ELIZABETH CITY CLEAR     77  71  82 SE7       30.02S
AHOSKIE*       LGT RAIN  74  70  88 CALM      30.01S
EDENTON*       CLEAR     78  69  73 SE3       30.03R
CURRITUCK*     CLEAR     76  70  81 SE3       30.03S
KILL DEVIL HLS CLEAR     75  69  79 SE5       30.02S
MANTEO         PTCLDY    76  73  90 SE6       30.03S
CAPE HATTERAS  CLEAR     78  67  68 SW5       30.03S
TARBORO*       FAIR      76  71  84 CALM      30.01S
GOLDSBORO      MOCLDY    82  71  69 S7        30.00R
WASHINGTON     CLEAR     79  70  73 S6        30.02R
GREENVILLE     CLEAR     81  70  69 S7        30.03R
NEW BERN       CLEAR     77  69  76 S3        30.04R
WILMINGTON     CLEAR     77  70  79 S3        30.03R
$$

VAZ048-280200-
ELSEWHERE

CITY           SKY/WX    TMP DP  RH WIND       PRES   REMARKS
HARRISBURG PA  CLOUDY    77  70  79 S6        29.95S
BALTIMORE      CLOUDY    77  63  61 S6        29.97R
ANNAPOLIS      CLOUDY    78  65  63 S10       29.97S
ANDREWS AFB    NOT AVBL
PHILADELPHIA   LGT RAIN  74  68  81 S7        29.99S
HENDERSON NC   CLOUDY    75  69  81 CALM      30.01S
GREENSBORO     LGT RAIN  75  73  94 W9        30.04R
ROCKY MOUNT    PTCLDY    75  70  84 CALM      30.00S
$$

VAZ100-280200-
MARINE

STATION/POSITION TIME  TEMP    WIND        PRES    WAVE   SWELL
                       AIR SEA DIR/SP/G            HT/PER HT/PER
                 (UTC) (F)     (DEG/KT/KT) (MB)    (FT/S) (FT/S)
CAPE MAY NJ      0000      71              1015.8S
LEWES DE         0000      71              1015.9S
15NM E FENWICK I 0050   73 72              1016.8R   3/ 9
OCEAN-CITY-INLET 0000      74              1016.9R
WACHAPREAGUE VA  0000      85              1016.2R
THOMAS POINT MD  0100   78 76  170/ 16/ 17 1016.0F
GOOSES REEF MD   0100   78 77  180/ 17/ 21 1015.8F   2/ 4
COVE POINT MD    0000                      1016.0F
SOLOMONS ISLAND  0000      79                N/A
BISHOPS HEAD MD  0000      81              1015.5R
POTOMAC MD       0100   78 78  180/ 14/ 17 1014.6S   2/ 3
CAMBRIDGE MD     0000      78              1014.6S
LEWISETTA VA     0000      81              1015.1R
RAPPAHANNOCK LGT 0000                      1016.6R
STINGRAY PT      0100   78 79  160/ 17/ 19 1016.1S   2/ 3
YORK RVR RNG VA  0000                      1015.0R
YORKTOWN VA      0000      77              1015.3R
JAMESTOWN VA     0100   80     140/  8/  8   N/A     0
DOMINION TERM VA 0000                      1015.6R
KIPTOPEKE VA     0000      76                N/A
CHES BAY BRIDGE  0000      76              1015.8R
WILLOUBY STN VA  0000                      1016.7R
CAPE HENRY BUOY  0012      74                N/A     3/ 8
1ST LANDING BUOY 0100   76 75  150/ 12/ 14 1016.0R   2/ 4
CAPE CHARLES BUO 0026      74                N/A     3/ 9
OFFSHORE WE BUOY 0021      74                N/A     3/ 8
64NM E OF VA BCH 0050   76 75  170/  6/  8 1016.9S   3/ 8   3/ 8
DUCK PIER NC     0000      74              1016.0R
44056 DUCK FRF   0011      77                N/A     3/ 8
OREGON INLET NC  0000      78              1016.7S
HATTERAS NC      0000      81              1016.5R
DIAMOND SHLS NC  0050   80 83  190/  6/  8 1016.9S   3/ 9   2/ 9
CAPE LOOKOUT NC  0100   80     170/  7/  7 1016.4R
$$




USA.gov is the U.S. government's official web portal to all federal, state and local government web resources and services.